User: anonymous   Login
Location: Unspecified
(0.0000°N, 0.0000°E)
Time: 07:07:28
(UTC+01:00)
Language:

Iridium 39 - Orbit

View from above orbital plane
View from above orbital plane
View from above satellite
View from above satellite

Ground track
Ground track

The orbit data is extracted from the following two-line orbital elements,

1 25042U 97069D   14354.50009025  .00000774  00000-0  26920-3 0   982
2 25042 086.3965 042.4141 0002106 114.4993 245.6423 14.34225049895921
Epoch (UTC): 20 December 2014 12:00:07
Eccentricity: 0.0002106
inclination: 86.3965°
perigee height: 776 km
apogee height: 779 km
right ascension of ascending node: 42.4141°
argument of perigee: 114.4993°
revolutions per day: 14.34225049
mean anomaly at epoch: 245.6423°
orbit number at epoch: 89592

The dashed part of the orbit path shows where the satellite is in the earth's shadow,  

DLR